Location: Cantaing
(50.1487°N, 3.1675°E)
Time: 16:39:20
(UTC+00:00)

ISS - Pass Details

Date: 13 March 2026
Orbit: 416 x 425 km, 51.6° (Epoch: 18 April)

Event Time Altitude Azimuth Distance (km) Brightness Sun altitude
Rises 20:16:03 0° 250° (WSW) 2,381 0.7 -23.7°
Reaches altitude 10° 20:18:10 10° 250° (WSW) 1,516 -0.4 -24.0°
Enters shadow 20:19:55 28° 248° (WSW) 825 -2.0 -24.2°
